Location: Chillicothe
(39.7950°N, 93.5520°W)
Time: 04:42:21
(UTC-06:00)

BEESAT - Pass Details

Date: 16 November 2019
Orbit: 700 x 709 km, 98.6° (Epoch: 11 December)

Event Time Altitude Azimuth Distance (km) Brightness Sun altitude
Rises 05:23:05 0° 184° (S) 3,076 ? -18.6°
Reaches altitude 10° 05:25:27 10° 192° (SSW) 2,161 ? -18.1°
Maximum altitude 05:29:52 39° 261° (W) 1,040 ? -17.3°
Enters shadow 05:32:14 24° 315° (NW) 1,450 ? -16.9°
